MSR020 HECA-HESH

Flight info

Callsign MSR020
Flight time 0h 40m
Altitude 27000
Route CVO L677 MENLI N697 SISIK V603 DASOT DCT SHM
Aircraft B738/M-SDE2E3FGHIRWXY/LB1

Departure

Time 2026-05-09 12:48
Airport Cairo International Airport (HECA)

Arrival

Time 2026-05-09 13:28
Airport Sharm El Sheikh International Airport (HESH)
Time Latitude Longitude Altitude Speed Heading
2026-05-09 12:29 30.10845 31.39511 387 ft 0 kts 75°
2026-05-09 12:40 30.10845 31.39510 387 ft 1 kts 73°
2026-05-09 12:40 30.10842 31.39494 387 ft 2 kts 77°
2026-05-09 12:41 30.10838 31.39477 387 ft 2 kts 74°
2026-05-09 12:41 30.10834 31.39460 387 ft 2 kts 75°
2026-05-09 12:41 30.10830 31.39444 387 ft 2 kts 74°
2026-05-09 12:41 30.10831 31.39427 387 ft 2 kts 120°
2026-05-09 12:42 30.10841 31.39415 387 ft 1 kts 157°
2026-05-09 12:42 30.10847 31.39413 387 ft 1 kts 168°
2026-05-09 12:42 30.10850 31.39412 387 ft 0 kts 165°
2026-05-09 12:43 30.10832 31.39418 387 ft 10 kts 165°
2026-05-09 12:44 30.10728 31.39450 387 ft 16 kts 164°
2026-05-09 12:44 30.10626 31.39488 387 ft 14 kts 140°
2026-05-09 12:44 30.10615 31.39582 387 ft 11 kts 73°
2026-05-09 12:44 30.10631 31.39698 387 ft 16 kts 108°
2026-05-09 12:45 30.10550 31.39743 387 ft 14 kts 166°
2026-05-09 12:45 30.10412 31.39784 387 ft 22 kts 168°
2026-05-09 12:45 30.10293 31.39706 387 ft 20 kts 229°
2026-05-09 12:45 30.10202 31.39588 387 ft 19 kts 226°
2026-05-09 12:46 30.10097 31.39619 387 ft 16 kts 138°
2026-05-09 12:46 30.10015 31.39706 388 ft 14 kts 128°
2026-05-09 12:46 30.09993 31.39811 388 ft 12 kts 111°
2026-05-09 12:46 30.10014 31.39886 388 ft 10 kts 48°
2026-05-09 12:47 30.10094 31.39994 388 ft 35 kts 50°
2026-05-09 12:47 30.10395 31.40392 388 ft 94 kts 50°
2026-05-09 12:47 30.10939 31.41114 388 ft 143 kts 49°
2026-05-09 12:47 30.11662 31.42075 579 ft 165 kts 46°
2026-05-09 12:48 30.12426 31.43117 1029 ft 176 kts 46°
2026-05-09 12:48 30.13162 31.44187 1781 ft 169 kts 59°
2026-05-09 12:48 30.13371 31.45510 2334 ft 181 kts 94°
2026-05-09 12:48 30.12754 31.46891 2715 ft 207 kts 131°
2026-05-09 12:49 30.11541 31.47887 3122 ft 224 kts 144°
2026-05-09 12:49 30.10158 31.48838 3499 ft 240 kts 144°
2026-05-09 12:49 30.08698 31.49866 3906 ft 252 kts 140°
2026-05-09 12:49 30.07382 31.51259 4273 ft 262 kts 126°
2026-05-09 12:50 30.06209 31.52934 4688 ft 274 kts 124°
2026-05-09 12:50 30.04985 31.54630 5267 ft 280 kts 127°
2026-05-09 12:50 30.03683 31.56290 5924 ft 282 kts 129°
2026-05-09 12:50 30.02331 31.57936 6573 ft 285 kts 130°
2026-05-09 12:51 30.00935 31.59609 7223 ft 288 kts 131°
2026-05-09 12:51 29.99550 31.61269 7876 ft 291 kts 131°
2026-05-09 12:51 29.98137 31.62966 8519 ft 295 kts 132°
2026-05-09 12:51 29.96729 31.64665 9161 ft 299 kts 132°
2026-05-09 12:52 29.95292 31.66400 9848 ft 301 kts 133°
2026-05-09 12:52 29.93842 31.68149 10448 ft 308 kts 133°
2026-05-09 12:52 29.92307 31.70001 10829 ft 323 kts 134°
2026-05-09 12:52 29.90746 31.71881 11314 ft 333 kts 134°
2026-05-09 12:53 29.89122 31.73838 11914 ft 339 kts 133°
2026-05-09 12:53 29.87501 31.75789 12591 ft 343 kts 133°
2026-05-09 12:53 29.85847 31.77780 13261 ft 347 kts 134°
2026-05-09 12:53 29.84173 31.79793 13926 ft 351 kts 134°
2026-05-09 12:54 29.82485 31.81823 14598 ft 355 kts 134°
2026-05-09 12:54 29.80763 31.83904 15210 ft 360 kts 133°
2026-05-09 12:54 29.79177 31.86153 15887 ft 364 kts 124°
2026-05-09 12:54 29.77977 31.88720 16508 ft 368 kts 111°
2026-05-09 12:55 29.77169 31.91490 17090 ft 373 kts 105°
2026-05-09 12:55 29.76494 31.94397 17665 ft 378 kts 103°
2026-05-09 12:55 29.75874 31.97348 18311 ft 381 kts 103°
2026-05-09 12:55 29.75267 32.00297 18937 ft 384 kts 103°
2026-05-09 12:56 29.74645 32.03269 19580 ft 386 kts 104°
2026-05-09 12:56 29.73990 32.06308 20136 ft 391 kts 104°
2026-05-09 12:56 29.73326 32.09335 20735 ft 394 kts 104°
2026-05-09 12:56 29.72654 32.12367 21351 ft 395 kts 105°
2026-05-09 12:57 29.71969 32.15434 21834 ft 401 kts 105°
2026-05-09 12:57 29.71269 32.18562 22372 ft 404 kts 105°
2026-05-09 12:57 29.70572 32.21668 22919 ft 406 kts 105°
2026-05-09 12:57 29.69857 32.24844 23433 ft 410 kts 105°
2026-05-09 12:58 29.69145 32.28010 23879 ft 415 kts 105°
2026-05-09 12:58 29.68421 32.31228 24379 ft 418 kts 105°
2026-05-09 12:58 29.67689 32.34478 24845 ft 421 kts 105°
2026-05-09 12:58 29.66955 32.37741 25000 ft 426 kts 105°
2026-05-09 12:59 29.66215 32.41016 24986 ft 424 kts 105°
2026-05-09 12:59 29.65474 32.44300 24977 ft 421 kts 105°
2026-05-09 12:59 29.64744 32.47532 24969 ft 422 kts 105°
2026-05-09 12:59 29.64001 32.50812 24973 ft 425 kts 105°
2026-05-09 13:00 29.63251 32.54122 24972 ft 438 kts 105°
2026-05-09 13:00 29.62469 32.57566 24972 ft 450 kts 105°
2026-05-09 13:00 29.61663 32.61113 24965 ft 462 kts 105°
2026-05-09 13:00 29.60799 32.64679 24961 ft 473 kts 107°
2026-05-09 13:01 29.59681 32.68248 24961 ft 483 kts 115°
2026-05-09 13:01 29.58063 32.71703 24967 ft 487 kts 123°
2026-05-09 13:01 29.56193 32.74907 24963 ft 485 kts 127°
2026-05-09 13:01 29.54176 32.78031 24957 ft 483 kts 129°
2026-05-09 13:02 29.52116 32.81076 24953 ft 483 kts 129°
2026-05-09 13:02 29.50048 32.84089 24955 ft 484 kts 130°
2026-05-09 13:02 29.47952 32.87140 24961 ft 484 kts 129°
2026-05-09 13:02 29.45887 32.90165 24948 ft 482 kts 129°
2026-05-09 13:03 29.43843 32.93183 24948 ft 482 kts 129°
2026-05-09 13:03 29.41780 32.96250 24948 ft 481 kts 129°
2026-05-09 13:03 29.39745 32.99292 24947 ft 482 kts 128°
2026-05-09 13:03 29.37715 33.02339 24952 ft 483 kts 128°
2026-05-09 13:04 29.35683 33.05399 24960 ft 483 kts 128°
2026-05-09 13:04 29.33670 33.08435 24976 ft 483 kts 128°
2026-05-09 13:04 29.31630 33.11513 24982 ft 482 kts 128°
2026-05-09 13:04 29.29615 33.14556 24986 ft 482 kts 128°
2026-05-09 13:05 29.27599 33.17600 24998 ft 483 kts 128°
2026-05-09 13:05 29.25562 33.20672 25009 ft 483 kts 128°
2026-05-09 13:05 29.23533 33.23731 25018 ft 483 kts 128°
2026-05-09 13:05 29.21500 33.26794 25020 ft 481 kts 128°
2026-05-09 13:06 29.19482 33.29831 25029 ft 481 kts 128°
2026-05-09 13:06 29.17449 33.32888 25036 ft 484 kts 128°
2026-05-09 13:06 29.15427 33.35926 25043 ft 482 kts 128°
2026-05-09 13:06 29.13395 33.38977 25048 ft 482 kts 128°
2026-05-09 13:07 29.11359 33.42030 25050 ft 482 kts 128°
2026-05-09 13:07 29.09340 33.45057 25054 ft 482 kts 128°
2026-05-09 13:07 29.07292 33.48125 25064 ft 482 kts 128°
2026-05-09 13:07 29.05267 33.51155 25074 ft 482 kts 128°
2026-05-09 13:08 29.03243 33.54183 25069 ft 481 kts 128°
2026-05-09 13:08 29.01216 33.57212 25075 ft 482 kts 128°
2026-05-09 13:08 28.99189 33.60239 25089 ft 482 kts 128°
2026-05-09 13:08 28.97129 33.63314 25091 ft 481 kts 128°
2026-05-09 13:09 28.95099 33.66343 25096 ft 482 kts 128°
2026-05-09 13:09 28.93056 33.69386 25097 ft 482 kts 129°
2026-05-09 13:09 28.91018 33.72421 25101 ft 481 kts 128°
2026-05-09 13:09 28.88996 33.75430 25114 ft 480 kts 128°
2026-05-09 13:10 28.86939 33.78455 25115 ft 480 kts 129°
2026-05-09 13:10 28.84873 33.81301 25123 ft 478 kts 133°
2026-05-09 13:10 28.82559 33.83995 25137 ft 479 kts 138°
2026-05-09 13:10 28.80058 33.86543 25150 ft 478 kts 141°
2026-05-09 13:11 28.77487 33.88977 25168 ft 479 kts 142°
2026-05-09 13:11 28.74890 33.91354 25174 ft 478 kts 143°
2026-05-09 13:11 28.72301 33.93703 25152 ft 478 kts 143°
2026-05-09 13:11 28.69695 33.96067 24839 ft 478 kts 143°
2026-05-09 13:12 28.67141 33.98399 24386 ft 470 kts 142°
2026-05-09 13:12 28.64599 34.00737 23846 ft 463 kts 142°
2026-05-09 13:12 28.62122 34.03028 23279 ft 457 kts 142°
2026-05-09 13:12 28.59693 34.05284 22710 ft 452 kts 142°
2026-05-09 13:13 28.57270 34.07542 22153 ft 446 kts 142°
2026-05-09 13:13 28.54902 34.09753 21604 ft 441 kts 142°
2026-05-09 13:13 28.52537 34.11935 21047 ft 435 kts 143°
2026-05-09 13:13 28.50080 34.13876 20490 ft 429 kts 151°
2026-05-09 13:14 28.47358 34.15216 19930 ft 421 kts 165°
2026-05-09 13:14 28.44511 34.15767 19372 ft 414 kts 178°
2026-05-09 13:16 28.25944 34.10300 15561 ft 382 kts 200°
2026-05-09 13:16 28.23476 34.09327 15037 ft 379 kts 200°
2026-05-09 13:16 28.20978 34.08356 14494 ft 376 kts 199°
2026-05-09 13:16 28.18502 34.07406 13957 ft 373 kts 199°
2026-05-09 13:17 28.16081 34.06482 13405 ft 371 kts 199°
2026-05-09 13:17 28.13642 34.05557 12857 ft 368 kts 198°
2026-05-09 13:17 28.11206 34.04634 12308 ft 366 kts 198°
2026-05-09 13:17 28.08814 34.03728 11784 ft 363 kts 198°
2026-05-09 13:18 28.06432 34.02828 11265 ft 360 kts 198°
2026-05-09 13:18 28.04060 34.01929 10747 ft 356 kts 198°
2026-05-09 13:18 28.01745 34.01053 10420 ft 347 kts 198°
2026-05-09 13:18 27.99483 34.00195 10271 ft 333 kts 198°
2026-05-09 13:19 27.97331 33.99380 10152 ft 319 kts 198°
2026-05-09 13:19 27.95245 33.98596 9895 ft 311 kts 197°
2026-05-09 13:19 27.93133 33.98063 9439 ft 310 kts 184°
2026-05-09 13:19 27.91022 33.98351 9060 ft 305 kts 157°
2026-05-09 13:20 27.89313 33.99649 8709 ft 299 kts 133°
2026-05-09 13:20 27.87967 34.01422 8340 ft 296 kts 127°
2026-05-09 13:20 27.86689 34.03263 7956 ft 294 kts 127°
2026-05-09 13:20 27.85421 34.05064 7595 ft 292 kts 128°
2026-05-09 13:21 27.84144 34.06820 7229 ft 289 kts 129°
2026-05-09 13:21 27.82855 34.08553 6891 ft 286 kts 129°
2026-05-09 13:21 27.81574 34.10258 6512 ft 284 kts 129°
2026-05-09 13:21 27.80319 34.11926 6174 ft 272 kts 129°
2026-05-09 13:22 27.79152 34.13554 5847 ft 262 kts 123°
2026-05-09 13:22 27.78368 34.15331 5524 ft 251 kts 100°
2026-05-09 13:22 27.78392 34.17219 5378 ft 235 kts 73°
2026-05-09 13:23 27.82218 34.23156 3881 ft 234 kts 40°
2026-05-09 13:23 27.83409 34.24347 3589 ft 226 kts 41°
2026-05-09 13:24 27.84556 34.25541 3291 ft 219 kts 41°
2026-05-09 13:24 27.85657 34.26690 3003 ft 213 kts 41°
2026-05-09 13:24 27.86735 34.27803 2749 ft 207 kts 40°
2026-05-09 13:24 27.87786 34.28889 2463 ft 201 kts 40°
2026-05-09 13:25 27.88792 34.29931 2199 ft 187 kts 40°
2026-05-09 13:25 27.89713 34.30885 2003 ft 169 kts 39°
2026-05-09 13:25 27.91360 34.32588 1547 ft 153 kts 39°
2026-05-09 13:26 27.92150 34.33405 1361 ft 154 kts 38°
2026-05-09 13:26 27.92929 34.34213 1166 ft 152 kts 38°
2026-05-09 13:26 27.93711 34.35022 966 ft 151 kts 38°
2026-05-09 13:26 27.94493 34.35827 781 ft 151 kts 38°
2026-05-09 13:27 27.95257 34.36618 570 ft 148 kts 38°
2026-05-09 13:27 27.96004 34.37407 410 ft 147 kts 37°
2026-05-09 13:27 27.96773 34.38187 212 ft 146 kts 37°
2026-05-09 13:27 27.97481 34.38911 159 ft 113 kts 45°
2026-05-09 13:28 27.97866 34.39322 159 ft 41 kts 41°
2026-05-09 13:28 27.98063 34.39525 159 ft 23 kts 44°
2026-05-09 13:28 27.98161 34.39546 159 ft 15 kts 314°
2026-05-09 13:28 27.98230 34.39462 159 ft 14 kts 314°
2026-05-09 13:29 27.98209 34.39378 159 ft 13 kts 223°
2026-05-09 13:29 27.98112 34.39275 159 ft 23 kts 222°
2026-05-09 13:29 27.97998 34.39156 159 ft 21 kts 223°
2026-05-09 13:29 27.97889 34.39041 159 ft 20 kts 223°
2026-05-09 13:30 27.97909 34.38935 159 ft 14 kts 312°
2026-05-09 13:30 27.97975 34.38850 160 ft 13 kts 295°
2026-05-09 13:30 27.97933 34.38773 160 ft 11 kts 226°
2026-05-09 13:30 27.97878 34.38711 160 ft 10 kts 224°
2026-05-09 13:31 27.97827 34.38657 160 ft 9 kts 222°
2026-05-09 13:31 27.97779 34.38609 160 ft 8 kts 212°
2026-05-09 13:31 27.97737 34.38629 160 ft 5 kts 131°
2026-05-09 13:31 27.97729 34.38640 160 ft 0 kts 132°